Time,TemperatureF,DewpointF,PressureIn,WindDirection,WindDirectionDegrees,WindSpeedMPH,WindSpeedGustMPH,Humidity,HourlyPrecipIn,Conditions,Clouds,dailyrainin,SolarRadiationWatts/m^2,SoftwareType,DateUTC
2013-02-07 00:00:00,35.3,29.1,30.04,NNW,340,5.0,5.0,78,0.00,,,0.00,0,WeatherCatV1.13B101,2013-02-07 00:00:00,
2013-02-07 00:05:00,35.4,29.2,30.04,NW,312,1.0,8.0,78,0.00,,,0.00,0,WeatherCatV1.13B101,2013-02-07 00:05:00,
2013-02-07 00:10:00,35.3,29.1,30.04,ESE,102,1.0,4.0,78,0.00,,,0.00,0,WeatherCatV1.13B101,2013-02-07 00:10:00,
2013-02-07 00:15:00,35.3,29.1,30.04,WNW,301,0.0,2.0,78,0.00,,,0.00,0,WeatherCatV1.13B101,2013-02-07 00:15:00,
2013-02-07 00:20:00,35.4,29.2,30.04,NW,323,1.0,3.0,78,0.00,,,0.00,0,WeatherCatV1.13B101,2013-02-07 00:20:00,
2013-02-07 00:25:00,35.4,28.9,30.05,NNW,344,1.0,5.0,77,0.00,,,0.00,0,WeatherCatV1.13B101,2013-02-07 00:25:00,
2013-02-07 00:30:00,35.4,28.9,30.04,WNW,285,0.0,4.0,77,0.00,,,0.00,0,WeatherCatV1.13B101,2013-02-07 00:30:00,
2013-02-07 00:35:00,35.5,29.0,30.04,North,349,0.0,3.0,77,0.00,,,0.00,0,WeatherCatV1.13B101,2013-02-07 00:35:00,
2013-02-07 00:40:00,35.5,29.0,30.04,WSW,252,1.0,2.0,77,0.00,,,0.00,0,WeatherCatV1.13B101,2013-02-07 00:40:00,
2013-02-07 00:45:00,35.5,29.0,30.05,SE,124,1.0,4.0,77,0.00,,,0.00,0,WeatherCatV1.13B101,2013-02-07 00:45:00,
2013-02-07 00:50:00,35.5,29.0,30.05,SW,223,1.0,4.0,77,0.00,,,0.00,0,WeatherCatV1.13B101,2013-02-07 00:50:00,
2013-02-07 00:55:00,35.5,29.0,30.04,NNW,338,0.0,4.0,77,0.00,,,0.00,0,WeatherCatV1.13B101,2013-02-07 00:55:00,
2013-02-07 01:00:00,35.4,28.9,30.04,NW,324,1.0,4.0,77,0.00,,,0.00,0,WeatherCatV1.13B101,2013-02-07 01:00:00,
2013-02-07 01:05:00,35.3,28.8,30.05,NW,319,0.0,5.0,77,0.00,,,0.00,0,WeatherCatV1.13B101,2013-02-07 01:05:00,
2013-02-07 01:10:00,35.3,28.8,30.05,NW,319,0.0,6.0,77,0.00,,,0.00,0,WeatherCatV1.13B101,2013-02-07 01:10:00,
2013-02-07 01:15:00,35.3,28.8,30.05,NNW,346,1.0,8.0,77,0.00,,,0.00,0,WeatherCatV1.13B101,2013-02-07 01:15:00,
2013-02-07 01:20:00,35.2,29.0,30.05,WNW,286,2.0,6.0,78,0.00,,,0.00,0,WeatherCatV1.13B101,2013-02-07 01:20:00,
2013-02-07 01:25:00,35.1,28.9,30.05,NW,318,5.0,8.0,78,0.00,,,0.00,0,WeatherCatV1.13B101,2013-02-07 01:25:00,
2013-02-07 01:30:00,35.1,28.9,30.05,NW,314,2.0,6.0,78,0.00,,,0.00,0,WeatherCatV1.13B101,2013-02-07 01:30:00,
2013-02-07 01:35:00,35.1,28.9,30.06,NW,319,0.0,3.0,78,0.00,,,0.00,0,WeatherCatV1.13B101,2013-02-07 01:35:00,
2013-02-07 01:40:00,35.0,28.8,30.06,North,9,0.0,2.0,78,0.00,,,0.00,0,WeatherCatV1.13B101,2013-02-07 01:40:00,
2013-02-07 01:45:00,34.9,28.8,30.06,NW,315,2.0,5.0,78,0.00,,,0.00,0,WeatherCatV1.13B101,2013-02-07 01:45:00,
2013-02-07 01:50:00,34.8,28.7,30.06,NW,311,0.0,4.0,78,0.00,,,0.00,0,WeatherCatV1.13B101,2013-02-07 01:50:00,
2013-02-07 01:55:00,34.8,28.7,30.06,WNW,302,0.0,6.0,78,0.00,,,0.00,0,WeatherCatV1.13B101,2013-02-07 01:55:00,
2013-02-07 02:00:00,34.7,28.6,30.06,NW,325,0.0,3.0,78,0.00,,,0.00,0,WeatherCatV1.13B101,2013-02-07 02:00:00,
2013-02-07 02:05:00,34.6,28.8,30.06,WNW,292,2.0,6.0,79,0.00,,,0.00,0,WeatherCatV1.13B101,2013-02-07 02:05:00,
2013-02-07 02:10:00,34.6,28.8,30.06,NNW,333,0.0,1.0,79,0.00,,,0.00,0,WeatherCatV1.13B101,2013-02-07 02:10:00,
2013-02-07 02:15:00,34.6,28.8,30.07,NW,316,1.0,4.0,79,0.00,,,0.00,0,WeatherCatV1.13B101,2013-02-07 02:15:00,
2013-02-07 02:20:00,34.6,28.8,30.07,NNW,334,0.0,2.0,79,0.00,,,0.00,0,WeatherCatV1.13B101,2013-02-07 02:20:00,
2013-02-07 02:25:00,34.6,28.8,30.07,NW,315,0.0,3.0,79,0.00,,,0.00,0,WeatherCatV1.13B101,2013-02-07 02:25:00,
2013-02-07 02:30:00,34.6,28.8,30.07,NW,309,1.0,6.0,79,0.00,,,0.00,0,WeatherCatV1.13B101,2013-02-07 02:30:00,
2013-02-07 02:35:00,34.7,28.6,30.07,NW,321,4.0,8.0,78,0.00,,,0.00,0,WeatherCatV1.13B101,2013-02-07 02:35:00,
2013-02-07 02:40:00,34.7,28.6,30.07,NW,312,3.0,3.0,78,0.00,,,0.00,0,WeatherCatV1.13B101,2013-02-07 02:40:00,
2013-02-07 02:45:00,34.7,28.6,30.07,ENE,73,0.0,4.0,78,0.00,,,0.00,0,WeatherCatV1.13B101,2013-02-07 02:45:00,
2013-02-07 02:50:00,34.8,28.7,30.07,NW,313,0.0,3.0,78,0.00,,,0.00,0,WeatherCatV1.13B101,2013-02-07 02:50:00,
2013-02-07 02:55:00,34.8,28.7,30.07,NNW,328,3.0,5.0,78,0.00,,,0.00,0,WeatherCatV1.13B101,2013-02-07 02:55:00,
2013-02-07 03:00:00,34.8,28.3,30.07,NW,309,0.0,6.0,77,0.00,,,0.00,0,WeatherCatV1.13B101,2013-02-07 03:00:00,
2013-02-07 03:05:00,34.8,28.3,30.06,NNW,340,1.0,6.0,77,0.00,,,0.00,0,WeatherCatV1.13B101,2013-02-07 03:05:00,
2013-02-07 03:10:00,34.7,28.2,30.06,North,350,1.0,4.0,77,0.00,,,0.00,0,WeatherCatV1.13B101,2013-02-07 03:10:00,
2013-02-07 03:15:00,34.7,28.6,30.06,NW,323,1.0,1.0,78,0.00,,,0.00,0,WeatherCatV1.13B101,2013-02-07 03:15:00,
2013-02-07 03:20:00,34.7,28.2,30.06,NW,311,2.0,7.0,77,0.00,,,0.00,0,WeatherCatV1.13B101,2013-02-07 03:20:00,
2013-02-07 03:25:00,34.6,28.5,30.06,NW,315,0.0,5.0,78,0.00,,,0.00,0,WeatherCatV1.13B101,2013-02-07 03:25:00,
2013-02-07 03:30:00,34.6,28.5,30.06,NW,319,0.0,6.0,78,0.00,,,0.00,0,WeatherCatV1.13B101,2013-02-07 03:30:00,
2013-02-07 03:35:00,34.7,28.2,30.06,WNW,290,0.0,8.0,77,0.00,,,0.00,0,WeatherCatV1.13B101,2013-02-07 03:35:00,
2013-02-07 03:40:00,34.7,28.2,30.07,WNW,296,4.0,7.0,77,0.00,,,0.00,0,WeatherCatV1.13B101,2013-02-07 03:40:00,
2013-02-07 03:45:00,34.8,28.3,30.07,NW,311,0.0,5.0,77,0.00,,,0.00,0,WeatherCatV1.13B101,2013-02-07 03:45:00,
2013-02-07 03:50:00,34.7,28.2,30.06,NNW,343,1.0,5.0,77,0.00,,,0.00,0,WeatherCatV1.13B101,2013-02-07 03:50:00,
2013-02-07 03:55:00,34.7,28.2,30.06,NW,307,2.0,6.0,77,0.00,,,0.00,0,WeatherCatV1.13B101,2013-02-07 03:55:00,
2013-02-07 04:00:00,34.7,28.2,30.06,NW,313,2.0,3.0,77,0.00,,,0.00,0,WeatherCatV1.13B101,2013-02-07 04:00:00,
2013-02-07 04:05:00,34.7,28.2,30.06,NW,318,0.0,3.0,77,0.00,,,0.00,0,WeatherCatV1.13B101,2013-02-07 04:05:00,
2013-02-07 04:10:00,34.6,28.1,30.06,NNW,327,0.0,4.0,77,0.00,,,0.00,0,WeatherCatV1.13B101,2013-02-07 04:10:00,
2013-02-07 04:15:00,34.6,28.1,30.06,NW,321,2.0,4.0,77,0.00,,,0.00,0,WeatherCatV1.13B101,2013-02-07 04:15:00,
2013-02-07 04:20:00,34.6,28.1,30.06,WNW,295,0.0,5.0,77,0.00,,,0.00,0,WeatherCatV1.13B101,2013-02-07 04:20:00,
2013-02-07 04:25:00,34.7,28.2,30.06,WNW,302,1.0,1.0,77,0.00,,,0.00,0,WeatherCatV1.13B101,2013-02-07 04:25:00,
2013-02-07 04:30:00,34.8,28.0,30.06,NW,325,0.0,4.0,76,0.00,,,0.00,0,WeatherCatV1.13B101,2013-02-07 04:30:00,
2013-02-07 04:35:00,34.9,28.1,30.06,NNW,331,0.0,1.0,76,0.00,,,0.00,0,WeatherCatV1.13B101,2013-02-07 04:35:00,
2013-02-07 04:40:00,35.0,28.2,30.07,NW,315,1.0,3.0,76,0.00,,,0.00,0,WeatherCatV1.13B101,2013-02-07 04:40:00,
2013-02-07 04:45:00,35.2,28.1,30.07,NW,315,1.0,4.0,75,0.00,,,0.00,0,WeatherCatV1.13B101,2013-02-07 04:45:00,
2013-02-07 04:50:00,35.3,27.9,30.07,North,5,1.0,3.0,74,0.00,,,0.00,0,WeatherCatV1.13B101,2013-02-07 04:50:00,
2013-02-07 04:55:00,35.4,28.0,30.07,WNW,282,1.0,6.0,74,0.00,,,0.00,0,WeatherCatV1.13B101,2013-02-07 04:55:00,
2013-02-07 05:00:00,35.4,28.0,30.07,NW,311,0.0,1.0,74,0.00,,,0.00,0,WeatherCatV1.13B101,2013-02-07 05:00:00,
2013-02-07 05:05:00,35.4,28.0,30.07,NW,323,0.0,1.0,74,0.00,,,0.00,0,WeatherCatV1.13B101,2013-02-07 05:05:00,
2013-02-07 05:10:00,35.4,28.0,30.07,NW,323,1.0,3.0,74,0.00,,,0.00,0,WeatherCatV1.13B101,2013-02-07 05:10:00,
2013-02-07 05:15:00,35.5,27.7,30.06,WNW,302,0.0,4.0,73,0.00,,,0.00,0,WeatherCatV1.13B101,2013-02-07 05:15:00,
2013-02-07 05:20:00,35.6,27.8,30.06,NNW,327,0.0,4.0,73,0.00,,,0.00,0,WeatherCatV1.13B101,2013-02-07 05:20:00,
2013-02-07 05:25:00,35.6,27.8,30.07,NNW,333,0.0,2.0,73,0.00,,,0.00,0,WeatherCatV1.13B101,2013-02-07 05:25:00,
2013-02-07 05:30:00,35.3,27.5,30.07,NW,320,0.0,1.0,73,0.00,,,0.00,0,WeatherCatV1.13B101,2013-02-07 05:30:00,
2013-02-07 05:35:00,34.9,27.5,30.07,NW,320,0.0,2.0,74,0.00,,,0.00,0,WeatherCatV1.13B101,2013-02-07 05:35:00,
2013-02-07 05:40:00,34.5,27.4,30.07,NW,323,1.0,2.0,75,0.00,,,0.00,0,WeatherCatV1.13B101,2013-02-07 05:40:00,
2013-02-07 05:45:00,34.1,27.3,30.07,NW,325,0.0,2.0,76,0.00,,,0.00,0,WeatherCatV1.13B101,2013-02-07 05:45:00,
2013-02-07 05:50:00,33.9,27.5,30.07,NW,315,0.0,1.0,77,0.00,,,0.00,0,WeatherCatV1.13B101,2013-02-07 05:50:00,
2013-02-07 05:55:00,33.8,27.7,30.07,NW,315,1.0,1.0,78,0.00,,,0.00,0,WeatherCatV1.13B101,2013-02-07 05:55:00,
2013-02-07 06:00:00,33.8,27.7,30.08,NW,317,0.0,3.0,78,0.00,,,0.00,0,WeatherCatV1.13B101,2013-02-07 06:00:00,
2013-02-07 06:05:00,33.7,27.6,30.07,NW,321,1.0,3.0,78,0.00,,,0.00,0,WeatherCatV1.13B101,2013-02-07 06:05:00,
2013-02-07 06:10:00,33.7,27.9,30.07,NW,322,0.0,2.0,79,0.00,,,0.00,0,WeatherCatV1.13B101,2013-02-07 06:10:00,
2013-02-07 06:15:00,33.5,27.7,30.08,NW,325,3.0,3.0,79,0.00,,,0.00,0,WeatherCatV1.13B101,2013-02-07 06:15:00,
2013-02-07 06:20:00,33.5,28.0,30.08,NNW,341,0.0,4.0,80,0.00,,,0.00,0,WeatherCatV1.13B101,2013-02-07 06:20:00,
2013-02-07 06:25:00,33.5,28.0,30.08,NW,321,0.0,6.0,80,0.00,,,0.00,0,WeatherCatV1.13B101,2013-02-07 06:25:00,
2013-02-07 06:30:00,33.5,28.0,30.08,NW,323,1.0,6.0,80,0.00,,,0.00,0,WeatherCatV1.13B101,2013-02-07 06:30:00,
2013-02-07 06:35:00,33.6,28.1,30.07,West,261,0.0,2.0,80,0.00,,,0.00,0,WeatherCatV1.13B101,2013-02-07 06:35:00,
2013-02-07 06:40:00,33.5,28.0,30.07,North,10,0.0,4.0,80,0.00,,,0.00,0,WeatherCatV1.13B101,2013-02-07 06:40:00,
2013-02-07 06:45:00,33.5,28.3,30.07,NW,324,1.0,6.0,81,0.00,,,0.00,0,WeatherCatV1.13B101,2013-02-07 06:45:00,
2013-02-07 06:50:00,33.5,28.3,30.08,NW,323,0.0,5.0,81,0.00,,,0.00,0,WeatherCatV1.13B101,2013-02-07 06:50:00,
2013-02-07 06:53:00,33.5,28.3,30.08,NW,323,2.0,2.0,81,0.00,,,0.00,0,WeatherCatV1.13B101,2013-02-07 06:53:00,
2013-02-07 06:58:00,33.4,28.2,30.07,NNW,327,0.0,2.0,81,0.00,,,0.00,0,WeatherCatV1.13B101,2013-02-07 06:58:00,
2013-02-07 07:03:00,33.3,28.4,30.08,NW,313,0.0,4.0,82,0.00,,,0.00,0,WeatherCatV1.13B101,2013-02-07 07:03:00,
2013-02-07 07:08:00,33.3,28.4,30.08,NW,304,0.0,4.0,82,0.00,,,0.00,0,WeatherCatV1.13B101,2013-02-07 07:08:00,
2013-02-07 07:13:00,33.2,28.3,30.08,NW,314,0.0,2.0,82,0.00,,,0.00,0,WeatherCatV1.13B101,2013-02-07 07:13:00,
2013-02-07 07:18:00,33.2,28.3,30.08,NW,312,3.0,3.0,82,0.00,,,0.00,0,WeatherCatV1.13B101,2013-02-07 07:18:00,
2013-02-07 07:23:00,33.1,28.5,30.08,NW,321,0.0,2.0,83,0.00,,,0.00,0,WeatherCatV1.13B101,2013-02-07 07:23:00,
2013-02-07 07:28:00,33.0,28.4,30.08,NNW,331,2.0,3.0,83,0.00,,,0.00,0,WeatherCatV1.13B101,2013-02-07 07:28:00,
2013-02-07 07:33:00,33.0,28.4,30.08,NW,321,0.0,3.0,83,0.00,,,0.00,5,WeatherCatV1.13B101,2013-02-07 07:33:00,
2013-02-07 07:38:00,33.1,28.8,30.08,NW,324,0.0,2.0,84,0.00,,,0.00,7,WeatherCatV1.13B101,2013-02-07 07:38:00,
2013-02-07 07:43:00,33.1,28.8,30.08,NW,320,3.0,3.0,84,0.00,,,0.00,11,WeatherCatV1.13B101,2013-02-07 07:43:00,
2013-02-07 07:48:00,33.2,28.9,30.08,NW,323,0.0,3.0,84,0.00,,,0.00,12,WeatherCatV1.13B101,2013-02-07 07:48:00,
2013-02-07 07:53:00,33.3,29.0,30.08,NW,325,0.0,5.0,84,0.00,,,0.00,14,WeatherCatV1.13B101,2013-02-07 07:53:00,
2013-02-07 07:58:00,33.4,29.1,30.08,SSW,204,1.0,2.0,84,0.00,,,0.00,16,WeatherCatV1.13B101,2013-02-07 07:58:00,
2013-02-07 08:03:00,33.6,29.0,30.08,NW,320,0.0,1.0,83,0.00,,,0.00,18,WeatherCatV1.13B101,2013-02-07 08:03:00,
2013-02-07 08:08:00,33.7,29.1,30.08,NW,317,0.0,1.0,83,0.00,,,0.00,19,WeatherCatV1.13B101,2013-02-07 08:08:00,
2013-02-07 08:13:00,33.8,29.2,30.08,NNW,344,0.0,3.0,83,0.00,,,0.00,21,WeatherCatV1.13B101,2013-02-07 08:13:00,
2013-02-07 08:18:00,33.9,29.3,30.09,NNW,333,1.0,4.0,83,0.00,,,0.00,23,WeatherCatV1.13B101,2013-02-07 08:18:00,
2013-02-07 08:23:00,34.1,29.2,30.08,NW,318,1.0,3.0,82,0.00,,,0.00,25,WeatherCatV1.13B101,2013-02-07 08:23:00,
2013-02-07 08:28:00,34.2,29.3,30.08,NW,318,0.0,2.0,82,0.00,,,0.00,26,WeatherCatV1.13B101,2013-02-07 08:28:00,
2013-02-07 08:33:00,34.3,29.4,30.09,NW,319,0.0,2.0,82,0.00,,,0.00,28,WeatherCatV1.13B101,2013-02-07 08:33:00,
2013-02-07 08:38:00,34.4,29.2,30.09,NNW,348,2.0,3.0,81,0.00,,,0.00,30,WeatherCatV1.13B101,2013-02-07 08:38:00,
2013-02-07 08:43:00,34.6,29.4,30.09,NW,325,0.0,5.0,81,0.00,,,0.00,33,WeatherCatV1.13B101,2013-02-07 08:43:00,
2013-02-07 08:48:00,34.8,29.3,30.09,NW,326,0.0,2.0,80,0.00,,,0.00,37,WeatherCatV1.13B101,2013-02-07 08:48:00,
2013-02-07 08:53:00,35.0,29.5,30.09,NW,321,0.0,4.0,80,0.00,,,0.00,44,WeatherCatV1.13B101,2013-02-07 08:53:00,
2013-02-07 08:58:00,35.2,29.4,30.09,NNW,331,0.0,5.0,79,0.00,,,0.00,44,WeatherCatV1.13B101,2013-02-07 08:58:00,
2013-02-07 09:03:00,35.5,29.6,30.09,NNW,327,0.0,3.0,79,0.00,,,0.00,40,WeatherCatV1.13B101,2013-02-07 09:03:00,
2013-02-07 09:08:00,35.7,29.8,30.09,WNW,288,1.0,1.0,79,0.00,,,0.00,46,WeatherCatV1.13B101,2013-02-07 09:08:00,
2013-02-07 09:13:00,35.9,29.7,30.09,NNW,338,2.0,2.0,78,0.00,,,0.00,51,WeatherCatV1.13B101,2013-02-07 09:13:00,
2013-02-07 09:18:00,36.2,29.7,30.09,NW,318,2.0,4.0,77,0.00,,,0.00,60,WeatherCatV1.13B101,2013-02-07 09:18:00,
2013-02-07 09:23:00,36.3,29.8,30.09,NW,307,0.0,3.0,77,0.00,,,0.00,72,WeatherCatV1.13B101,2013-02-07 09:23:00,
2013-02-07 09:28:00,36.5,30.0,30.09,NNW,329,0.0,2.0,77,0.00,,,0.00,67,WeatherCatV1.13B101,2013-02-07 09:28:00,
2013-02-07 09:33:00,36.7,29.9,30.09,NNW,327,0.0,3.0,76,0.00,,,0.00,62,WeatherCatV1.13B101,2013-02-07 09:33:00,
2013-02-07 09:38:00,36.8,30.0,30.09,WNW,299,3.0,4.0,76,0.00,,,0.00,62,WeatherCatV1.13B101,2013-02-07 09:38:00,
2013-02-07 09:42:00,36.8,30.0,30.09,NNW,336,0.0,2.0,76,0.00,,,0.00,74,WeatherCatV1.13B101,2013-02-07 09:42:00,
2013-02-07 09:47:00,37.0,30.2,30.09,NW,313,1.0,5.0,76,0.00,,,0.00,84,WeatherCatV1.13B101,2013-02-07 09:47:00,
2013-02-07 09:52:00,37.1,29.9,30.09,NW,317,3.0,4.0,75,0.00,,,0.00,81,WeatherCatV1.13B101,2013-02-07 09:52:00,
2013-02-07 09:57:00,37.3,30.1,30.09,NW,321,1.0,3.0,75,0.00,,,0.00,100,WeatherCatV1.13B101,2013-02-07 09:57:00,
2013-02-07 10:02:00,37.6,29.7,30.09,NNW,337,2.0,5.0,73,0.00,,,0.00,98,WeatherCatV1.13B101,2013-02-07 10:02:00,
2013-02-07 10:07:00,37.9,30.0,30.09,NW,326,0.0,5.0,73,0.00,,,0.00,70,WeatherCatV1.13B101,2013-02-07 10:07:00,
2013-02-07 10:12:00,38.0,30.1,30.09,NW,304,3.0,7.0,73,0.00,,,0.00,58,WeatherCatV1.13B101,2013-02-07 10:12:00,
2013-02-07 10:17:00,38.1,30.2,30.09,WNW,290,4.0,6.0,73,0.00,,,0.00,58,WeatherCatV1.13B101,2013-02-07 10:17:00,
2013-02-07 10:22:00,38.3,30.8,30.09,NW,314,0.0,0.0,74,0.00,,,0.00,62,WeatherCatV1.13B101,2013-02-07 10:22:00,
2013-02-07 10:27:00,38.6,30.7,30.09,NW,310,4.0,4.0,73,0.00,,,0.00,70,WeatherCatV1.13B101,2013-02-07 10:27:00,
2013-02-07 10:32:00,38.7,30.5,30.09,NW,313,0.0,5.0,72,0.00,,,0.00,77,WeatherCatV1.13B101,2013-02-07 10:32:00,
2013-02-07 10:37:00,38.8,30.6,30.09,NW,313,1.0,3.0,72,0.00,,,0.00,410,WeatherCatV1.13B101,2013-02-07 10:37:00,
2013-02-07 10:42:00,39.0,31.1,30.09,WNW,302,6.0,8.0,73,0.00,,,0.00,343,WeatherCatV1.13B101,2013-02-07 10:42:00,
2013-02-07 10:47:00,39.1,31.2,30.09,WNW,289,2.0,6.0,73,0.00,,,0.00,287,WeatherCatV1.13B101,2013-02-07 10:47:00,
2013-02-07 10:52:00,38.9,31.0,30.09,NW,325,1.0,6.0,73,0.00,,,0.00,325,WeatherCatV1.13B101,2013-02-07 10:52:00,
2013-02-07 10:57:00,38.9,31.3,30.08,North,355,2.0,5.0,74,0.00,,,0.00,373,WeatherCatV1.13B101,2013-02-07 10:57:00,
2013-02-07 11:02:00,39.1,31.5,30.08,NW,321,5.0,7.0,74,0.00,,,0.00,403,WeatherCatV1.13B101,2013-02-07 11:02:00,
2013-02-07 11:07:00,39.2,31.6,30.08,WNW,297,1.0,5.0,74,0.00,,,0.00,410,WeatherCatV1.13B101,2013-02-07 11:07:00,
2013-02-07 11:12:00,39.3,31.7,30.08,NNW,348,3.0,3.0,74,0.00,,,0.00,299,WeatherCatV1.13B101,2013-02-07 11:12:00,
2013-02-07 11:17:00,39.4,31.5,30.08,NW,315,0.0,7.0,73,0.00,,,0.00,425,WeatherCatV1.13B101,2013-02-07 11:17:00,
2013-02-07 11:22:00,39.8,32.2,30.08,NW,318,0.0,3.0,74,0.00,,,0.00,374,WeatherCatV1.13B101,2013-02-07 11:22:00,
2013-02-07 11:27:00,40.4,32.4,30.08,NW,307,3.0,3.0,73,0.00,,,0.00,432,WeatherCatV1.13B101,2013-02-07 11:27:00,
2013-02-07 11:32:00,40.5,32.2,30.08,WNW,299,5.0,7.0,72,0.00,,,0.00,255,WeatherCatV1.13B101,2013-02-07 11:32:00,
2013-02-07 11:37:00,40.4,31.8,30.08,NW,320,4.0,6.0,71,0.00,,,0.00,295,WeatherCatV1.13B101,2013-02-07 11:37:00,
2013-02-07 11:42:00,40.1,31.5,30.08,NW,309,3.0,7.0,71,0.00,,,0.00,294,WeatherCatV1.13B101,2013-02-07 11:42:00,
2013-02-07 11:47:00,40.3,32.0,30.07,WSW,247,3.0,5.0,72,0.00,,,0.00,281,WeatherCatV1.13B101,2013-02-07 11:47:00,
2013-02-07 11:52:00,40.2,31.6,30.07,NW,321,2.0,5.0,71,0.00,,,0.00,316,WeatherCatV1.13B101,2013-02-07 11:52:00,
2013-02-07 11:57:00,40.4,31.8,30.07,NW,309,1.0,4.0,71,0.00,,,0.00,279,WeatherCatV1.13B101,2013-02-07 11:57:00,
2013-02-07 12:02:00,40.4,32.1,30.06,NW,304,3.0,6.0,72,0.00,,,0.00,255,WeatherCatV1.13B101,2013-02-07 12:02:00,
2013-02-07 12:07:00,40.1,31.8,30.06,NW,321,6.0,6.0,72,0.00,,,0.00,181,WeatherCatV1.13B101,2013-02-07 12:07:00,
2013-02-07 12:12:00,39.8,31.5,30.06,NE,38,0.0,7.0,72,0.00,,,0.00,334,WeatherCatV1.13B101,2013-02-07 12:12:00,
2013-02-07 12:17:00,39.9,32.0,30.06,NW,319,4.0,4.0,73,0.00,,,0.00,260,WeatherCatV1.13B101,2013-02-07 12:17:00,
2013-02-07 12:22:00,40.2,32.2,30.05,WNW,300,3.0,3.0,73,0.00,,,0.00,278,WeatherCatV1.13B101,2013-02-07 12:22:00,
2013-02-07 12:27:00,40.5,32.5,30.05,NW,325,3.0,4.0,73,0.00,,,0.00,334,WeatherCatV1.13B101,2013-02-07 12:27:00,
2013-02-07 12:32:00,40.7,32.4,30.05,West,263,2.0,3.0,72,0.00,,,0.00,244,WeatherCatV1.13B101,2013-02-07 12:32:00,
2013-02-07 12:37:00,40.5,32.2,30.04,NW,313,1.0,3.0,72,0.00,,,0.00,239,WeatherCatV1.13B101,2013-02-07 12:37:00,
2013-02-07 12:42:00,41.0,32.7,30.04,NW,306,3.0,6.0,72,0.00,,,0.00,230,WeatherCatV1.13B101,2013-02-07 12:42:00,
2013-02-07 12:47:00,40.9,32.6,30.04,NW,322,0.0,5.0,72,0.00,,,0.00,272,WeatherCatV1.13B101,2013-02-07 12:47:00,
2013-02-07 12:52:00,40.9,32.9,30.03,NNW,340,3.0,5.0,73,0.00,,,0.00,232,WeatherCatV1.13B101,2013-02-07 12:52:00,
2013-02-07 12:57:00,40.8,32.8,30.03,NNW,333,2.0,6.0,73,0.00,,,0.00,216,WeatherCatV1.13B101,2013-02-07 12:57:00,
2013-02-07 13:02:00,40.5,32.5,30.03,NNW,339,2.0,7.0,73,0.00,,,0.00,179,WeatherCatV1.13B101,2013-02-07 13:02:00,
2013-02-07 13:07:00,40.5,32.9,30.03,NNW,335,4.0,5.0,74,0.00,,,0.00,202,WeatherCatV1.13B101,2013-02-07 13:07:00,
2013-02-07 13:12:00,40.7,33.4,30.03,NW,314,4.0,4.0,75,0.00,,,0.00,165,WeatherCatV1.13B101,2013-02-07 13:12:00,
2013-02-07 13:17:00,40.7,33.1,30.03,NW,306,8.0,8.0,74,0.00,,,0.00,165,WeatherCatV1.13B101,2013-02-07 13:17:00,
2013-02-07 13:22:00,40.8,33.2,30.03,NNW,328,1.0,2.0,74,0.00,,,0.00,162,WeatherCatV1.13B101,2013-02-07 13:22:00,
2013-02-07 13:27:00,40.7,32.7,30.03,SW,232,3.0,4.0,73,0.00,,,0.00,213,WeatherCatV1.13B101,2013-02-07 13:27:00,
2013-02-07 13:32:00,41.0,32.7,30.03,NW,314,2.0,4.0,72,0.00,,,0.00,171,WeatherCatV1.13B101,2013-02-07 13:32:00,
2013-02-07 13:37:00,40.9,32.2,30.02,NW,323,2.0,4.0,71,0.00,,,0.00,153,WeatherCatV1.13B101,2013-02-07 13:37:00,
2013-02-07 13:42:00,40.9,32.2,30.02,NW,319,1.0,4.0,71,0.00,,,0.00,139,WeatherCatV1.13B101,2013-02-07 13:42:00,
2013-02-07 13:47:00,40.8,32.1,30.02,WNW,303,2.0,6.0,71,0.00,,,0.00,134,WeatherCatV1.13B101,2013-02-07 13:47:00,
2013-02-07 13:52:00,40.7,32.4,30.02,NNW,329,3.0,10.0,72,0.00,,,0.00,100,WeatherCatV1.13B101,2013-02-07 13:52:00,
2013-02-07 13:57:00,40.7,32.4,30.02,NW,316,1.0,6.0,72,0.00,,,0.00,100,WeatherCatV1.13B101,2013-02-07 13:57:00,
2013-02-07 14:02:00,40.6,32.3,30.02,NW,307,3.0,7.0,72,0.00,,,0.00,109,WeatherCatV1.13B101,2013-02-07 14:02:00,
2013-02-07 14:07:00,40.5,31.8,30.02,WNW,288,6.0,8.0,71,0.00,,,0.00,104,WeatherCatV1.13B101,2013-02-07 14:07:00,
2013-02-07 14:12:00,40.3,31.7,30.02,NW,304,0.0,6.0,71,0.00,,,0.00,104,WeatherCatV1.13B101,2013-02-07 14:12:00,
2013-02-07 14:17:00,40.3,31.7,30.02,NW,323,1.0,7.0,71,0.00,,,0.00,76,WeatherCatV1.13B101,2013-02-07 14:17:00,
2013-02-07 14:22:00,40.3,32.3,30.01,NW,313,2.0,7.0,73,0.00,,,0.00,88,WeatherCatV1.13B101,2013-02-07 14:22:00,
2013-02-07 14:27:00,40.2,32.2,30.01,NW,309,3.0,3.0,73,0.00,,,0.00,91,WeatherCatV1.13B101,2013-02-07 14:27:00,
2013-02-07 14:32:00,40.2,32.6,30.01,NNW,327,2.0,6.0,74,0.00,,,0.00,79,WeatherCatV1.13B101,2013-02-07 14:32:00,
2013-02-07 14:37:00,40.3,32.7,30.01,NW,317,3.0,3.0,74,0.00,,,0.00,69,WeatherCatV1.13B101,2013-02-07 14:37:00,
2013-02-07 14:42:00,40.3,33.0,30.01,NNW,330,3.0,4.0,75,0.00,,,0.00,91,WeatherCatV1.13B101,2013-02-07 14:42:00,
2013-02-07 14:47:00,40.2,32.2,30.01,NW,309,3.0,6.0,73,0.00,,,0.00,86,WeatherCatV1.13B101,2013-02-07 14:47:00,
2013-02-07 14:52:00,40.1,31.8,30.01,WNW,297,0.0,5.0,72,0.00,,,0.00,91,WeatherCatV1.13B101,2013-02-07 14:52:00,
2013-02-07 14:57:00,40.1,31.8,30.01,NNW,327,1.0,4.0,72,0.00,,,0.00,83,WeatherCatV1.13B101,2013-02-07 14:57:00,
2013-02-07 15:02:00,40.1,32.2,30.01,NNW,329,1.0,6.0,73,0.00,,,0.00,70,WeatherCatV1.13B101,2013-02-07 15:02:00,
2013-02-07 15:07:00,40.0,32.4,30.01,NW,308,1.0,3.0,74,0.00,,,0.00,62,WeatherCatV1.13B101,2013-02-07 15:07:00,
2013-02-07 15:12:00,39.9,32.6,30.01,WNW,300,0.0,3.0,75,0.00,,,0.00,62,WeatherCatV1.13B101,2013-02-07 15:12:00,
2013-02-07 15:17:00,39.9,32.6,30.00,West,273,3.0,4.0,75,0.00,,,0.00,62,WeatherCatV1.13B101,2013-02-07 15:17:00,
2013-02-07 15:22:00,39.8,32.5,30.01,NW,305,1.0,4.0,75,0.00,,,0.00,53,WeatherCatV1.13B101,2013-02-07 15:22:00,
2013-02-07 15:27:00,39.8,32.9,30.01,WNW,293,2.0,5.0,76,0.00,,,0.00,53,WeatherCatV1.13B101,2013-02-07 15:27:00,
2013-02-07 15:32:00,39.8,32.9,30.00,NNW,338,1.0,5.0,76,0.00,,,0.00,49,WeatherCatV1.13B101,2013-02-07 15:32:00,
2013-02-07 15:37:00,39.7,32.8,30.00,NW,313,0.0,4.0,76,0.00,,,0.00,44,WeatherCatV1.13B101,2013-02-07 15:37:00,
2013-02-07 15:42:00,39.7,33.1,30.00,NNW,327,2.0,4.0,77,0.00,,,0.00,42,WeatherCatV1.13B101,2013-02-07 15:42:00,
2013-02-07 15:45:00,39.7,33.1,30.00,NW,314,2.0,4.0,77,0.00,,,0.00,39,WeatherCatV1.13B101,2013-02-07 15:45:00,
2013-02-07 15:47:00,39.7,33.1,30.00,NW,316,2.0,5.0,77,0.00,,,0.00,35,WeatherCatV1.13B101,2013-02-07 15:47:00,
2013-02-07 15:50:00,39.6,33.0,30.00,NW,313,2.0,5.0,77,0.00,,,0.00,35,WeatherCatV1.13B101,2013-02-07 15:50:00,
2013-02-07 15:55:00,39.8,32.9,30.01,NW,315,2.0,6.0,76,0.00,,,0.00,61,WeatherCatV1.13B101,2013-02-07 15:55:00,
2013-02-07 16:00:00,39.8,32.9,30.01,NW,315,2.0,6.0,76,0.00,,,0.00,61,WeatherCatV1.13B101,2013-02-07 16:00:00,
2013-02-07 16:05:00,39.8,32.9,30.01,NW,315,2.0,6.0,76,0.00,,,0.00,61,WeatherCatV1.13B101,2013-02-07 16:05:00,
2013-02-07 16:10:00,39.8,32.9,30.01,NW,315,2.0,6.0,76,0.00,,,0.00,61,WeatherCatV1.13B101,2013-02-07 16:10:00,
2013-02-07 16:15:00,39.8,32.9,30.01,NW,315,2.0,6.0,76,0.00,,,0.00,61,WeatherCatV1.13B101,2013-02-07 16:15:00,
2013-02-07 16:20:00,39.8,32.9,30.01,NW,315,2.0,6.0,76,0.00,,,0.00,61,WeatherCatV1.13B101,2013-02-07 16:20:00,
2013-02-07 16:25:00,39.6,33.3,30.00,NW,315,2.0,7.0,78,0.00,,,0.00,40,WeatherCatV1.13B101,2013-02-07 16:25:00,
2013-02-07 16:30:00,39.6,33.3,30.00,NW,315,2.0,7.0,78,0.00,,,0.00,40,WeatherCatV1.13B101,2013-02-07 16:30:00,
2013-02-07 16:35:00,39.6,33.3,30.00,NW,315,2.0,7.0,78,0.00,,,0.00,40,WeatherCatV1.13B101,2013-02-07 16:35:00,
2013-02-07 16:40:00,39.6,33.3,30.00,NW,315,2.0,7.0,78,0.00,,,0.00,40,WeatherCatV1.13B101,2013-02-07 16:40:00,
2013-02-07 16:45:00,39.6,33.3,30.00,NW,315,2.0,7.0,78,0.00,,,0.00,40,WeatherCatV1.13B101,2013-02-07 16:45:00,
2013-02-07 16:50:00,39.6,33.3,30.00,NW,315,2.0,7.0,78,0.00,,,0.00,40,WeatherCatV1.13B101,2013-02-07 16:50:00,
2013-02-07 16:55:00,39.5,33.9,29.99,NW,315,1.0,6.0,80,0.00,,,0.00,23,WeatherCatV1.13B101,2013-02-07 16:55:00,
2013-02-07 17:00:00,39.5,33.9,29.99,NW,315,1.0,6.0,80,0.00,,,0.00,23,WeatherCatV1.13B101,2013-02-07 17:00:00,
2013-02-07 17:05:00,39.5,33.9,29.99,NW,315,1.0,6.0,80,0.00,,,0.00,23,WeatherCatV1.13B101,2013-02-07 17:05:00,
2013-02-07 17:10:00,39.5,33.9,29.99,NW,315,1.0,6.0,80,0.00,,,0.00,23,WeatherCatV1.13B101,2013-02-07 17:10:00,
2013-02-07 17:15:00,39.5,33.9,29.99,NW,315,1.0,6.0,80,0.00,,,0.00,23,WeatherCatV1.13B101,2013-02-07 17:15:00,
2013-02-07 17:20:00,39.5,33.9,29.99,NW,315,1.0,6.0,80,0.00,,,0.00,23,WeatherCatV1.13B101,2013-02-07 17:20:00,
2013-02-07 17:25:00,38.9,33.6,29.99,NW,315,2.0,8.0,81,0.00,,,0.00,3,WeatherCatV1.13B101,2013-02-07 17:25:00,
2013-02-07 17:30:00,38.9,33.6,29.99,NW,315,2.0,8.0,81,0.00,,,0.00,3,WeatherCatV1.13B101,2013-02-07 17:30:00,
2013-02-07 17:35:00,38.9,33.6,29.99,NW,315,2.0,8.0,81,0.00,,,0.00,3,WeatherCatV1.13B101,2013-02-07 17:35:00,
2013-02-07 17:40:00,38.9,33.6,29.99,NW,315,2.0,8.0,81,0.00,,,0.00,3,WeatherCatV1.13B101,2013-02-07 17:40:00,
2013-02-07 17:45:00,38.9,33.6,29.99,NW,315,2.0,8.0,81,0.00,,,0.00,3,WeatherCatV1.13B101,2013-02-07 17:45:00,
2013-02-07 17:50:00,38.8,34.1,29.99,NW,315,1.0,6.0,83,0.00,,,0.00,0,WeatherCatV1.13B101,2013-02-07 17:50:00,
2013-02-07 17:55:00,38.8,34.1,29.99,NW,315,1.0,6.0,83,0.00,,,0.00,0,WeatherCatV1.13B101,2013-02-07 17:55:00,
2013-02-07 18:00:00,38.8,34.1,29.99,NW,315,1.0,6.0,83,0.00,,,0.00,0,WeatherCatV1.13B101,2013-02-07 18:00:00,
2013-02-07 18:05:00,38.8,34.1,29.99,NW,315,1.0,6.0,83,0.00,,,0.00,0,WeatherCatV1.13B101,2013-02-07 18:05:00,
2013-02-07 18:10:00,38.8,34.1,29.99,NW,315,1.0,6.0,83,0.00,,,0.00,0,WeatherCatV1.13B101,2013-02-07 18:10:00,
2013-02-07 18:15:00,38.8,34.1,29.99,NW,315,1.0,6.0,83,0.00,,,0.00,0,WeatherCatV1.13B101,2013-02-07 18:15:00,
2013-02-07 18:20:00,38.1,34.9,29.99,NW,315,1.0,6.0,88,0.00,,,0.00,0,WeatherCatV1.13B101,2013-02-07 18:20:00,
2013-02-07 18:25:00,38.1,34.9,29.99,NW,315,1.0,6.0,88,0.00,,,0.00,0,WeatherCatV1.13B101,2013-02-07 18:25:00,
2013-02-07 18:30:00,38.1,34.9,29.99,NW,315,1.0,6.0,88,0.00,,,0.00,0,WeatherCatV1.13B101,2013-02-07 18:30:00,
2013-02-07 18:35:00,38.1,34.9,29.99,NW,315,1.0,6.0,88,0.00,,,0.00,0,WeatherCatV1.13B101,2013-02-07 18:35:00,
2013-02-07 18:40:00,38.1,34.9,29.99,NW,315,1.0,6.0,88,0.00,,,0.00,0,WeatherCatV1.13B101,2013-02-07 18:40:00,
2013-02-07 18:45:00,38.1,34.9,29.99,NW,315,1.0,6.0,88,0.00,,,0.00,0,WeatherCatV1.13B101,2013-02-07 18:45:00,
2013-02-07 18:50:00,38.1,34.9,29.99,NW,315,1.0,6.0,88,0.00,,,0.00,0,WeatherCatV1.13B101,2013-02-07 18:50:00,
2013-02-07 18:55:00,37.7,35.3,29.99,WNW,292,0.0,2.0,91,0.00,,,0.00,0,WeatherCatV1.13B101,2013-02-07 18:55:00,
2013-02-07 19:00:00,37.7,35.3,29.99,WNW,292,0.0,2.0,91,0.00,,,0.00,0,WeatherCatV1.13B101,2013-02-07 19:00:00,
2013-02-07 19:05:00,37.7,35.3,29.99,WNW,292,0.0,2.0,91,0.00,,,0.00,0,WeatherCatV1.13B101,2013-02-07 19:05:00,
2013-02-07 19:10:00,37.7,35.3,29.99,WNW,292,0.0,2.0,91,0.00,,,0.00,0,WeatherCatV1.13B101,2013-02-07 19:10:00,
2013-02-07 19:15:00,37.7,35.3,29.99,WNW,292,0.0,2.0,91,0.00,,,0.00,0,WeatherCatV1.13B101,2013-02-07 19:15:00,
2013-02-07 19:20:00,37.7,35.3,29.99,WNW,292,0.0,2.0,91,0.00,,,0.00,0,WeatherCatV1.13B101,2013-02-07 19:20:00,
2013-02-07 19:25:00,37.4,35.3,29.99,WNW,292,0.0,3.0,92,0.00,,,0.00,0,WeatherCatV1.13B101,2013-02-07 19:25:00,
2013-02-07 19:30:00,37.4,35.3,29.99,WNW,292,0.0,3.0,92,0.00,,,0.00,0,WeatherCatV1.13B101,2013-02-07 19:30:00,
2013-02-07 19:35:00,37.4,35.3,29.99,WNW,292,0.0,3.0,92,0.00,,,0.00,0,WeatherCatV1.13B101,2013-02-07 19:35:00,
2013-02-07 19:40:00,37.4,35.3,29.99,WNW,292,0.0,3.0,92,0.00,,,0.00,0,WeatherCatV1.13B101,2013-02-07 19:40:00,
2013-02-07 19:45:00,37.4,35.3,29.99,WNW,292,0.0,3.0,92,0.00,,,0.00,0,WeatherCatV1.13B101,2013-02-07 19:45:00,
2013-02-07 19:50:00,37.4,35.3,29.99,WNW,292,0.0,3.0,92,0.00,,,0.00,0,WeatherCatV1.13B101,2013-02-07 19:50:00,
2013-02-07 19:55:00,37.1,35.3,29.99,WNW,292,0.0,1.0,93,0.00,,,0.00,0,WeatherCatV1.13B101,2013-02-07 19:55:00,
2013-02-07 20:00:00,37.1,35.3,29.99,WNW,292,0.0,1.0,93,0.00,,,0.00,0,WeatherCatV1.13B101,2013-02-07 20:00:00,
2013-02-07 20:05:00,37.1,35.3,29.99,WNW,292,0.0,1.0,93,0.00,,,0.00,0,WeatherCatV1.13B101,2013-02-07 20:05:00,
2013-02-07 20:10:00,37.1,35.3,29.99,WNW,292,0.0,1.0,93,0.00,,,0.00,0,WeatherCatV1.13B101,2013-02-07 20:10:00,
2013-02-07 20:15:00,37.1,35.3,29.99,WNW,292,0.0,1.0,93,0.00,,,0.00,0,WeatherCatV1.13B101,2013-02-07 20:15:00,
2013-02-07 20:20:00,37.1,35.3,29.99,WNW,292,0.0,1.0,93,0.00,,,0.00,0,WeatherCatV1.13B101,2013-02-07 20:20:00,
2013-02-07 20:25:00,35.5,33.9,29.99,WNW,292,0.0,2.0,94,0.08,,,0.00,0,WeatherCatV1.13B101,2013-02-07 20:25:00,
2013-02-07 20:30:00,35.5,33.9,29.99,WNW,292,0.0,2.0,94,0.08,,,0.00,0,WeatherCatV1.13B101,2013-02-07 20:30:00,
2013-02-07 20:35:00,35.5,33.9,29.99,WNW,292,0.0,2.0,94,0.08,,,0.00,0,WeatherCatV1.13B101,2013-02-07 20:35:00,
2013-02-07 20:40:00,35.5,33.9,29.99,WNW,292,0.0,2.0,94,0.08,,,0.00,0,WeatherCatV1.13B101,2013-02-07 20:40:00,
2013-02-07 20:45:00,35.5,33.9,29.99,WNW,292,0.0,2.0,94,0.08,,,0.00,0,WeatherCatV1.13B101,2013-02-07 20:45:00,
2013-02-07 20:50:00,35.5,33.9,29.99,WNW,292,0.0,2.0,94,0.08,,,0.00,0,WeatherCatV1.13B101,2013-02-07 20:50:00,
2013-02-07 20:55:00,35.1,33.8,29.99,West,270,0.0,1.0,95,0.03,,,0.00,0,WeatherCatV1.13B101,2013-02-07 20:55:00,
2013-02-07 21:00:00,35.1,33.8,29.99,West,270,0.0,1.0,95,0.03,,,0.00,0,WeatherCatV1.13B101,2013-02-07 21:00:00,
2013-02-07 21:05:00,35.1,33.8,29.99,West,270,0.0,1.0,95,0.03,,,0.00,0,WeatherCatV1.13B101,2013-02-07 21:05:00,
2013-02-07 21:10:00,35.1,33.8,29.99,West,270,0.0,1.0,95,0.03,,,0.00,0,WeatherCatV1.13B101,2013-02-07 21:10:00,
2013-02-07 21:15:00,35.1,33.8,29.99,West,270,0.0,1.0,95,0.03,,,0.00,0,WeatherCatV1.13B101,2013-02-07 21:15:00,
2013-02-07 21:20:00,35.1,33.8,29.99,West,270,0.0,1.0,95,0.03,,,0.00,0,WeatherCatV1.13B101,2013-02-07 21:20:00,
2013-02-07 21:25:00,35.3,34.0,29.99,West,270,0.0,1.0,95,0.00,,,0.00,0,WeatherCatV1.13B101,2013-02-07 21:25:00,
2013-02-07 21:30:00,35.3,34.0,29.99,West,270,0.0,1.0,95,0.00,,,0.00,0,WeatherCatV1.13B101,2013-02-07 21:30:00,
2013-02-07 21:35:00,35.3,34.0,29.99,West,270,0.0,1.0,95,0.00,,,0.00,0,WeatherCatV1.13B101,2013-02-07 21:35:00,
2013-02-07 21:40:00,35.3,34.0,29.99,West,270,0.0,1.0,95,0.00,,,0.00,0,WeatherCatV1.13B101,2013-02-07 21:40:00,
2013-02-07 21:45:00,35.3,34.0,29.99,West,270,0.0,1.0,95,0.00,,,0.00,0,WeatherCatV1.13B101,2013-02-07 21:45:00,
2013-02-07 21:55:00,35.3,34.0,29.99,West,270,0.0,1.0,95,0.00,,,0.00,0,WeatherCatV1.13B101,2013-02-07 21:55:00,
2013-02-07 22:00:00,35.0,34.0,29.99,NW,323,0.0,1.0,96,0.00,,,0.06,0,WeatherCatV1.13B101,2013-02-07 22:00:00,
2013-02-07 22:05:00,35.0,34.0,29.99,NNW,333,0.0,2.0,96,0.00,,,0.06,0,WeatherCatV1.13B101,2013-02-07 22:05:00,
2013-02-07 22:10:00,34.9,33.9,29.99,NNW,333,0.0,0.0,96,0.00,,,0.06,0,WeatherCatV1.13B101,2013-02-07 22:10:00,
2013-02-07 22:15:00,34.9,33.9,30.00,NNW,333,0.0,0.0,96,0.00,,,0.06,0,WeatherCatV1.13B101,2013-02-07 22:15:00,
2013-02-07 22:20:00,34.9,33.9,30.00,NNW,333,0.0,0.0,96,0.00,,,0.06,0,WeatherCatV1.13B101,2013-02-07 22:20:00,
2013-02-07 22:25:00,34.9,33.9,30.00,NNW,334,0.0,1.0,96,0.00,,,0.06,0,WeatherCatV1.13B101,2013-02-07 22:25:00,
2013-02-07 22:30:00,34.9,33.9,30.00,NNW,334,0.0,0.0,96,0.00,,,0.06,0,WeatherCatV1.13B101,2013-02-07 22:30:00,
2013-02-07 22:35:00,35.0,34.0,30.00,NNW,338,0.0,0.0,96,0.00,,,0.06,0,WeatherCatV1.13B101,2013-02-07 22:35:00,
2013-02-07 22:40:00,34.9,33.9,30.00,NNW,338,0.0,0.0,96,0.00,,,0.06,0,WeatherCatV1.13B101,2013-02-07 22:40:00,
2013-02-07 22:45:00,34.9,33.9,30.00,NNW,338,0.0,0.0,96,0.00,,,0.06,0,WeatherCatV1.13B101,2013-02-07 22:45:00,
2013-02-07 22:50:00,34.9,33.9,30.00,NNW,328,0.0,1.0,96,0.00,,,0.06,0,WeatherCatV1.13B101,2013-02-07 22:50:00,
2013-02-07 22:55:00,34.8,33.8,30.00,NNW,327,0.0,0.0,96,0.00,,,0.06,0,WeatherCatV1.13B101,2013-02-07 22:55:00,
2013-02-07 23:00:00,34.7,33.7,30.00,NNW,328,0.0,0.0,96,0.00,,,0.06,0,WeatherCatV1.13B101,2013-02-07 23:00:00,
2013-02-07 23:05:00,34.8,33.8,30.00,NNW,329,0.0,0.0,96,0.00,,,0.06,0,WeatherCatV1.13B101,2013-02-07 23:05:00,
2013-02-07 23:10:00,34.7,33.7,30.01,NNW,329,1.0,1.0,96,0.00,,,0.06,0,WeatherCatV1.13B101,2013-02-07 23:10:00,
2013-02-07 23:15:00,34.8,33.8,30.00,North,351,0.0,1.0,96,0.00,,,0.06,0,WeatherCatV1.13B101,2013-02-07 23:15:00,
2013-02-07 23:20:00,34.8,33.8,30.00,North,5,0.0,1.0,96,0.00,,,0.06,0,WeatherCatV1.13B101,2013-02-07 23:20:00,
2013-02-07 23:25:00,34.8,33.8,30.01,ENE,57,0.0,1.0,96,0.00,,,0.06,0,WeatherCatV1.13B101,2013-02-07 23:25:00,
2013-02-07 23:30:00,34.7,33.7,30.01,NNE,17,0.0,1.0,96,0.00,,,0.06,0,WeatherCatV1.13B101,2013-02-07 23:30:00,
2013-02-07 23:35:00,34.8,33.8,30.01,WNW,288,0.0,1.0,96,0.00,,,0.06,0,WeatherCatV1.13B101,2013-02-07 23:35:00,
2013-02-07 23:40:00,34.8,33.8,30.01,WNW,288,0.0,0.0,96,0.00,,,0.06,0,WeatherCatV1.13B101,2013-02-07 23:40:00,
2013-02-07 23:45:00,34.9,33.9,30.01,WNW,288,0.0,0.0,96,0.00,,,0.06,0,WeatherCatV1.13B101,2013-02-07 23:45:00,
2013-02-07 23:50:00,34.9,33.9,30.01,NW,320,1.0,3.0,96,0.00,,,0.06,0,WeatherCatV1.13B101,2013-02-07 23:50:00,
2013-02-07 23:55:00,34.9,33.9,30.02,NW,320,1.0,1.0,96,0.00,,,0.06,0,WeatherCatV1.13B101,2013-02-07 23:55:00,